Port Huron, MI

6:06 AM EDT on June 27, 2017 (GMT -0400)
Saint Clair County International

Weather History for KPHN - February, 2014

Change the Weather History Date:

Sunday, February 16, 2014

  Actual Average (KMTC) Record (KMTC)
Temperature  
Mean Temperature 7 °F -  
Max Temperature 21 °F 32 °F 57 °F (2006)
Min Temperature -9 °F 17 °F -15 °F (2015)
Degree Days  
Heating Degree Days 58    
Moisture  
Dew Point 5 °F    
Average Humidity 81    
Maximum Humidity 86    
Minimum Humidity 68    
Precipitation  
Precipitation 0.00 in - - ()
Sea Level Pressure  
Sea Level Pressure 30.11 in    
Wind  
Wind Speed 2 mph (NNE)    
Max Wind Speed 13 mph    
Max Gust Speed 18 mph    
Visibility 7 miles    
Events Snow    
Averages and records for this station are not official NWS values.
T = Trace of Precipitation, MM = Missing Value Source: NWS Daily Summary

Daily Weather History Graph

Daily Weather History Graph

Search for Another Location

Airport or City:

Trip Planner

Search our weather history database for the weather conditions in past years. The results will help you decide how hot, cold, wet, or windy it might be!

Date:

Astronomy

Feb. 16, 2014 Rise Set
Actual Time 7:26 AM EST 6:02 PM EST
Civil Twilight 6:57 AM EST 6:31 PM EST
Nautical Twilight 6:23 AM EST 7:05 PM EST
Astronomical Twilight 5:51 AM EST 7:37 PM EST
Moon 8:02 PM EST (2/16) 7:51 AM EST (2/16)
Length of Visible Light 11h 34m
Length of Day
10h 36m
Full, 97% of the Moon is Illuminated
Feb 16
Full
Feb 22
Last Quarter
Mar 1
New
Mar 8
First Quarter
Mar 16
Full

Hourly Weather History & Observations

Time (EST) Temp. Windchill Dew Point Humidity Pressure Visibility Wind Dir Wind Speed Gust Speed Precip Events Conditions
12:18 AM -0.4 °F - -4.0 °F 85% 30.03 in 10.0 mi Calm Calm - N/A   Mostly Cloudy
12:38 AM -0.4 °F - -4.0 °F 85% 30.03 in 10.0 mi Calm Calm - N/A   Mostly Cloudy
12:58 AM -0.4 °F - -4.0 °F 85% 30.03 in 10.0 mi Calm Calm - N/A   Mostly Cloudy
1:18 AM -0.4 °F - -4.0 °F 85% 30.02 in 10.0 mi Calm Calm - N/A   Overcast
1:38 AM -0.4 °F - -4.0 °F 85% 30.02 in 10.0 mi Calm Calm - N/A   Mostly Cloudy
1:58 AM 1.4 °F - -4.0 °F 78% 30.01 in 10.0 mi Calm Calm - N/A   Mostly Cloudy
2:18 AM 1.4 °F - -2.2 °F 85% 30.01 in 10.0 mi Calm Calm - N/A   Mostly Cloudy
2:38 AM 1.4 °F - -4.0 °F 78% 30.01 in 7.0 mi Calm Calm - N/A   Mostly Cloudy
2:58 AM 1.4 °F - -2.2 °F 85% 30.00 in 7.0 mi Calm Calm - N/A   Overcast
3:18 AM 3.2 °F - -2.2 °F 78% 29.99 in 10.0 mi Calm Calm - N/A   Overcast
3:38 AM 3.2 °F - -0.4 °F 85% 29.98 in 10.0 mi Calm Calm - N/A   Overcast
3:58 AM 5.0 °F - -0.4 °F 78% 29.97 in 10.0 mi Calm Calm - N/A   Overcast
4:18 AM 6.8 °F - 3.2 °F 85% 29.97 in 10.0 mi Calm Calm - N/A   Overcast
4:38 AM 8.6 °F - 3.2 °F 79% 29.97 in 7.0 mi Calm Calm - N/A   Overcast
4:58 AM 8.6 °F - 3.2 °F 79% 29.96 in 7.0 mi Calm Calm - N/A   Overcast
5:18 AM 8.6 °F - 5.0 °F 85% 29.97 in 7.0 mi Calm Calm - N/A   Overcast
5:38 AM 8.6 °F - 5.0 °F 85% 29.97 in 7.0 mi Calm Calm - N/A   Overcast
5:58 AM 8.6 °F - 5.0 °F 85% 29.97 in 10.0 mi Calm Calm - N/A   Overcast
6:18 AM 8.6 °F - 5.0 °F 85% 29.97 in 10.0 mi Calm Calm - N/A   Overcast
6:39 AM 8.6 °F - 5.0 °F 85% 29.97 in 5.0 mi Calm Calm - N/A Snow Light Snow
6:58 AM 8.6 °F - 5.0 °F 85% 29.97 in 2.0 mi Calm Calm - N/A Snow Light Snow
7:19 AM 8.6 °F - 5.0 °F 85% 29.97 in 1.8 mi Calm Calm - N/A Snow Light Snow
7:38 AM 10.4 °F - 6.8 °F 85% 29.98 in 1.8 mi Calm Calm - N/A Snow Light Snow
7:58 AM 10.4 °F - 6.8 °F 85% 29.98 in 0.8 mi Calm Calm - N/A Snow Light Snow
8:18 AM 12.2 °F 6.1 °F 8.6 °F 85% 29.98 in 0.8 mi East 3.5 mph - N/A Snow Light Snow
8:38 AM 12.2 °F - 8.6 °F 85% 29.99 in 1.0 mi Calm Calm - N/A Snow Light Snow
8:58 AM 12.2 °F 6.1 °F 8.6 °F 85% 30.00 in 1.2 mi NE 3.5 mph - N/A Snow Light Snow
9:18 AM 12.2 °F - 8.6 °F 85% 30.01 in 1.2 mi Calm Calm - N/A Snow Light Snow
9:38 AM 14.0 °F 8.2 °F 10.4 °F 86% 30.01 in 0.8 mi NE 3.5 mph - N/A Snow Light Snow
9:58 AM 14.0 °F 8.2 °F 10.4 °F 86% 30.02 in 0.5 mi NNE 3.5 mph - N/A Snow Snow
10:18 AM 15.8 °F 7.2 °F 10.4 °F 79% 30.02 in 1.5 mi NE 5.8 mph - N/A Snow Light Snow
10:38 AM 15.8 °F 10.2 °F 12.2 °F 86% 30.03 in 2.0 mi NE 3.5 mph - N/A Snow Light Snow
10:58 AM 15.8 °F 8.6 °F 12.2 °F 86% 30.03 in 1.8 mi NE 4.6 mph - N/A Snow Light Snow
11:18 AM 17.6 °F 10.7 °F 12.2 °F 79% 30.04 in 3.0 mi NE 4.6 mph - N/A Snow Light Snow
11:39 AM 17.6 °F 9.3 °F 12.2 °F 79% 30.04 in 3.0 mi NNE 5.8 mph - N/A Snow Light Snow
11:58 AM 17.6 °F 9.3 °F 12.2 °F 79% 30.05 in 2.5 mi NE 5.8 mph - N/A Snow Light Snow
12:18 PM 19.4 °F 14.3 °F 12.2 °F 74% 30.05 in 2.5 mi NE 3.5 mph - N/A Snow Light Snow
12:38 PM 19.4 °F 11.5 °F 12.2 °F 74% 30.04 in 5.0 mi NE 5.8 mph - N/A Snow Light Snow
12:58 PM 19.4 °F 14.3 °F 14.0 °F 80% 30.04 in 5.0 mi NE 3.5 mph - N/A   Haze
1:19 PM 21.2 °F 12.6 °F 14.0 °F 74% 30.05 in 7.0 mi NE 6.9 mph - N/A   Overcast
1:38 PM 21.2 °F - 14.0 °F 74% 30.05 in 10.0 mi Calm Calm - N/A   Overcast
1:58 PM 21.2 °F 10.9 °F 12.2 °F 68% 30.06 in 10.0 mi NNW 9.2 mph - N/A   Overcast
2:18 PM 21.2 °F 10.1 °F 12.2 °F 68% 30.06 in 10.0 mi NNE 10.4 mph - N/A   Overcast
2:38 PM 21.2 °F 10.1 °F 12.2 °F 68% 30.07 in 10.0 mi North 10.4 mph - N/A   Overcast
2:59 PM 19.4 °F 7.9 °F 12.2 °F 74% 30.09 in 7.0 mi North 10.4 mph - N/A Snow Light Snow
3:18 PM 19.4 °F 6.6 °F 12.2 °F 74% 30.10 in 4.0 mi North 12.7 mph 16.1 mph N/A Snow Light Snow
3:38 PM 17.6 °F 5.0 °F 10.4 °F 73% 30.12 in 10.0 mi North 11.5 mph 18.4 mph N/A   Overcast
3:58 PM 17.6 °F 7.3 °F 10.4 °F 73% 30.13 in 10.0 mi North 8.1 mph - N/A Snow Light Snow
4:18 PM 17.6 °F 8.2 °F 10.4 °F 73% 30.15 in 10.0 mi North 6.9 mph - N/A   Mostly Cloudy
4:39 PM 17.6 °F 6.4 °F 10.4 °F 73% 30.17 in 10.0 mi NNE 9.2 mph - N/A   Mostly Cloudy
4:58 PM 15.8 °F 3.4 °F 8.6 °F 73% 30.18 in 10.0 mi North 10.4 mph - N/A   Overcast
5:18 PM 15.8 °F 4.2 °F 8.6 °F 73% 30.20 in 10.0 mi NNE 9.2 mph 16.1 mph N/A   Overcast
5:39 PM 15.8 °F 2.7 °F 8.6 °F 73% 30.22 in 7.0 mi NNE 11.5 mph - N/A Snow Light Snow
5:58 PM 14.0 °F 5.1 °F 8.6 °F 79% 30.24 in 10.0 mi North 5.8 mph - N/A Snow Light Snow
6:19 PM 14.0 °F 3.9 °F 8.6 °F 79% 30.25 in 10.0 mi North 6.9 mph - N/A Snow Light Snow
6:38 PM 12.2 °F 4.3 °F 6.8 °F 79% 30.26 in 10.0 mi North 4.6 mph - N/A Snow Light Snow
6:58 PM 12.2 °F 6.1 °F 6.8 °F 79% 30.27 in 10.0 mi NNW 3.5 mph - N/A   Clear
7:18 PM 10.4 °F - 5.0 °F 79% 30.28 in 10.0 mi Calm Calm - N/A   Clear
7:38 PM 8.6 °F - 5.0 °F 85% 30.29 in 10.0 mi Calm Calm - N/A   Clear
7:58 PM 6.8 °F -0.1 °F 3.2 °F 85% 30.30 in 10.0 mi NW 3.5 mph - N/A   Clear
8:18 PM 8.6 °F 2.0 °F 3.2 °F 79% 30.32 in 10.0 mi North 3.5 mph - N/A   Clear
8:38 PM 1.4 °F -6.2 °F -2.2 °F 85% 30.32 in 10.0 mi NNE 3.5 mph - N/A   Clear
8:58 PM 3.2 °F - -0.4 °F 85% 30.32 in 7.0 mi Calm Calm - N/A Snow Light Snow
9:19 PM -0.4 °F - -4.0 °F 85% 30.33 in 10.0 mi Calm Calm - N/A   Clear
9:38 PM -2.2 °F - -5.8 °F 85% 30.35 in 10.0 mi Calm Calm - N/A   Clear
9:58 PM -2.2 °F -10.4 °F -5.8 °F 85% 30.35 in 10.0 mi North 3.5 mph - N/A   Clear
10:18 PM 1.4 °F -6.2 °F -2.2 °F 85% 30.35 in 10.0 mi North 3.5 mph - N/A   Clear
10:38 PM 3.2 °F -4.2 °F -0.4 °F 85% 30.35 in 10.0 mi North 3.5 mph - N/A   Clear
10:59 PM -2.2 °F - -5.8 °F 85% 30.35 in 10.0 mi Calm Calm - N/A   Clear
11:18 PM -2.2 °F - -5.8 °F 85% 30.36 in 10.0 mi Calm Calm - N/A   Clear
11:38 PM -7.6 °F - -13.0 °F 77% 30.36 in 10.0 mi Calm Calm - N/A   Clear
11:58 PM -9.4 °F - -14.8 °F 77% 30.36 in 10.0 mi Calm Calm - N/A   Clear